Overblog Suivre ce blog
Editer l'article Administration Créer mon blog
14 janvier 2012 6 14 /01 /janvier /2012 08:53

 

04coma

 

 

  Aujourd’hui se sera marc Coma qui ouvrira la route

 

Classement général dakar Moto aprés la douzième étape

Rang Numéro Pilote/Equipage Equipe Marque - Modèle Temps Retard
1 001 COMA Marc KTM MRW RALLY DAKAR EAM KTM - 450 cc 39:38:16
2 002 DESPRES Cyril TEAM RED BULL KTM KTM - 450cc Rally 39:39:51 00:01:35
3 003 RODRIGUES Helder TEAM YAMAHA RACING YAMAHA - WRF 450 40:52:05 01:13:49
4 010 VILADOMS Jordi BORDONE-FERRARI KTM - Rally Replica 41:18:50 01:40:34
5 032 SVITKO Stefan HANT LOGOMOTION SLOVAKIA KTM - 450 RR 41:20:01 01:41:45
6 020 FARRES GUELL Gerard BORDONE-FERRARI KTM - 450 RALLY REPLICA 41:44:52 02:06:36
7 006 ULLEVALSETER Pal Anders TEAM ULLEVALSETER KTM - 450 R 41:50:30 02:12:14
8 034 BOTTURI ALESSANDRO BORDONE-FERRARI KTM - 450 RALLY REPLICA 42:34:50 02:56:34
9 016 PAIN Olivier TEAM YAMAHA RACING YAMAHA - 450 YZF Rally 42:46:47 03:08:31
10 028 ZANOL FELIPE KTM BRASIL KTM - 450 Replica 42:54:49 03:16:33
11 023 BARREDA BORT Joan HUSQVARNA RALLYE TEAM BY SPEEDBRAIN HUSQVARNA - Rally 450 RR 43:12:57 03:34:41
12 008 FARIA Ruben TEAM RED BULL KTM KTM - 450 CC RALLY 43:25:42 03:47:26
13 017 CZACHOR Jacek ORLEN TEAM KTM - 450 Replica 44:03:36 04:25:20
14 021 AUBERT JOHNNY KTM RALLY FACTORY TEAM KTM - 450 RALLY 44:05:01 04:26:45
15 015 VERHOEVEN Frans SHERCO RALLY RAID - CROCOAVENTURES SHERCO - SR 450 44:38:33 05:00:17
16 018 KNUIMAN Henk WIM MOTORS DAKAR KTM - 450 REPLICA 44:42:19 05:04:03
17 039 GYENES Emanuel VECTRA RACING KTM - 450 RR 44:48:35 05:10:19
18 035 CECI Paolo BORDONE-FERRARI KTM - 450 RR 44:55:35 05:17:19
19 026 RODRIGUES FILHO Jose helio HUSQVARNA RALLYE TEAM BY SPEEDBRAIN HUQSVARNA - RALLY 450 RR 45:23:14 05:44:58
20 064 SCHRÖDER DANIEL MEMO TOURS - ALFIE COX TEAM KTM - 450cc 45:47:16 06:09:00
21 012 PELLICER Jose Manuel HUSQVARNA RALLYE TEAM BY SPEEDBRAIN HUSQVARNA - Rally 450 RR 46:11:53 06:33:37
22 033 BETHYS Thierry
YAMAHA - 450 YZF Rally 46:22:08 06:43:52
23 144 CURTIS Darryl MEMO TOURS - ALFIE COX TEAM KTM - 450 Replica 46:38:09 06:59:53
24 043 PISANO Michael MP CONCEPT KTM - 450 RR 46:39:49 07:01:33
25 089 NASCIMENTO DENISIO PETROBRAS LUBRAX HONDA - CRF 450 47:02:48 07:24:32
26 040 SERRADORI Mathieu
KTM - 450 Rally 47:12:44 07:34:28
27 048 LIEFHEBBER Hans-jos
KTM - 450 RR 47:22:34 07:44:18
28 110 BIRCH Christopher MEMO TOURS - ALFIE COX TEAM KTM - 450 Replica 47:38:29 08:00:13
29 082 GUINDANI Vincent HFP YAMAHA - YZR 450 47:40:12 08:01:56
30 007 GONCALVES Paulo HUSQVARNA RALLYE TEAM BY SPEEDBRAIN Husqvarna - Rally 450 RR 47:41:35 08:03:19
31 041 PROHENS Felipe TAMARUGAL HONDA RACING XC RALLY TEAM HONDA (Transformada) - CRF450X RALLY 48:25:46 08:47:30
32 049 DABROWSKI Marek ORLEN TEAM KTM - 450 RR 48:27:11 08:48:55
33 042 PROHENS Jaime TAMARUGAL HONDA RACING XC RALLY TEAM HONDA - CRF 450X RALLY 48:46:21 09:08:05
34 050 SALVATIERRA Juan Carlos GHR HONDA HONDA - CRF450X 49:12:06 09:33:50
35 053 RODRIGUEZ Claudio TAMARUGAL HONDA RACING XC RALLY TEAM HONDA - CRF 450 X 49:38:26 10:00:10
36 060 WATT Stanley FRONT ROW GB / CRECENT KTM KTM - 450 RR 49:55:28 10:17:12
37 066 LORMAND Etienne ROUSSILL'HOTEL - HFP YAMAHA - 450 WRF 50:07:25 10:29:09
38 029 BERGLUND Thomas HUSABERG RALLY TEAM SCANDINAVIA HUSABERG - FE 450 50:23:59 10:45:43
39 057 WILLEMSEN Daniel TEAM HONDA EUROPE HONDA - CRF 450 X 51:08:24 11:30:08
40 183 RODRIGUEZ Pablo HONDA RACING ARGENTINA HONDA - CRF450X 51:11:28 11:33:12
41 045 SANZ PLA-GILIBERT Eulalia GAS GAS GAS - GAS - EC 450 51:22:08 11:43:52
42 154 GAJDOSECH ROBERTO ANTONIO ATUEL MOTOS YAMAHA - WR 450 51:42:23 12:04:07
43 062 SCHWARZ David HUSABERG RALLYE RACING AUSTRALIA HUSABERG - FE450 51:44:29 12:06:13
44 071 BUTUZA Marcel BOANO HONDA - CRE F 450 X 51:45:03 12:06:47
45 046 BIANCHI PRATA Pedro TEAM BIANCHI PRATA / VODAFONE HUSQUARNA - TE449 RALLY 51:45:15 12:06:59
46 145 NUTTALL Dean MEMO TOURS - ALFIE COX TEAM KTM - 450 Replica 51:48:36 12:10:20
47 014 CASTEU David TEAM YAMAHA RACING YAMAHA - 450 WRF Rally 52:12:32 12:34:16
48 148 GOMEZ Mauricio PACO GOMEZ RALLY TEAM YAMAHA - WR 450 52:39:57 13:01:41
49 077 PICCO Franco FRANCO PICCO RACING YAMAHA - WRF 450 52:44:09 13:05:53
50 185 SANCHEZ MARCELO TEAM RPM KAWASAKI KAWASAKI - KLX 450 R 53:11:13 13:32:57
51 181 RIOS FELIPE KTM PERU RALLY TEAM KTM - Rally Replica 53:16:27 13:38:11
52 059 CIOTTI Filippo FRANCO PICCO RACING RIEJU - MRT 450 53:40:04 14:01:48
53 086 MUNK Jes X-RAGE RACING KTM - 450 53:42:10 14:03:54
54 138 LECOQ SEBASTIEN TEAM PERFORMANCE ENDURO YAMAHA - 450 YZFE 53:46:14 14:07:58
55 081 SUESSE NED ADVRIDER/ NEDURO KTM - 450XCW 53:50:41 14:12:25
56 068 BARROT David POWERBIKE YAMAHA IPONE YAMAHA - 450 IZF RALLY 54:01:52 14:23:36
57 159 CHITTICK Jamie GHR HONDA HONDA - CRF450X 54:09:20 14:31:04
58 092 HAMARD Stephane REUNION RALLYE RAID KTM - 450 RR 54:18:25 14:40:09
59 087 MEILLAT Christophe C.M PROMO KAWASAKI - KLX 450 R 54:29:50 14:51:34
60 056 MENARD Jean-Christophe HFP YAMAHA - 450 YZF 54:45:40 15:07:24
61 061 MATTOS Dimas BRASIL MOTO TOUR KTM - 450 RR 54:55:30 15:17:14
62 069 PAYEN Hugo
YAMAHA - 450 WRF 55:41:42 16:03:26
63 165 MULDER GEERT TEAM HONDA EUROPE HONDA - CFR 450 X 55:46:14 16:07:58
64 065 LAZARD Laurent MOTO TEAM BY ELF YAMAHA - WR 450 56:12:38 16:34:22
65 022 DUCLOS Alain GIOFIL APRILIA APRILIA - RXV 4.5 Rally 56:34:04 16:55:48
66 168 GUIRAL DEMIAN AVANT MOTOS HONDA GENUINE OIL HONDA - CRF 450X 56:40:09 17:01:53
67 058 PUERTAS HERRERA Miguel HIMOINSA DAKAR TEAM YAMAHA - 450 WR 57:00:14 17:21:58
68 100 VESELY Jan CZECH DAKAR TEAM YAMAHA - WR 450F 57:14:41 17:36:25
69 122 PALANTE Eric WIM MOTORS RACING DIVISION KTM - 450 RR FREVA 57:24:26 17:46:10
70 164 DEMELCHORI DIEGO TEAM RPM KAWASAKI KAWASAKI - 2009 57:56:45 18:18:29
71 072 GOUNON SERGE EMS KTM - 450 RR 58:15:00 18:36:44
72 075 BUSIN Pablo MOTO TEAM BY ELF YAMAHA - 450 WR 58:17:18 18:39:02
73 076 PEDERZOLI Claudio ON-OFF RACING TEAM YAMAHA - WR 450 58:47:46 19:09:30
74 093 GOMEZ Jorge VEMOTOR CANARIAS Husqvarna - 450cc 60:03:42 20:25:26
75 080 PASCUAL Pablo oscar JINCHENG TEAM JINCHENG - JC450Y 60:10:08 20:31:52
76 074 KOFMAN Erik
KTM - 450 RR 60:29:29 20:51:13
77 091 TONETTI NICOLA TEAM BOANO HONDA - CRF 450 X 61:06:42 21:28:26
78 073 BONY BRUNO EMS KTM - 450 RR 61:36:37 21:58:21
79 149 CIPKA DUSAN SLOVAKIA TURBOTEAM ZATKO BMW - G450X 61:40:19 22:02:03
80 107 BODINGER Ronnie HUSABERG FACTORY TEAM HUSABERG - FE 450 63:19:53 23:41:37
81 174 MARTÍNEZ Paco PACO MARTINEZ KAWASAKI - KX450 63:34:37 23:56:21
82 085 PENATE MUNOZ Pedro Manuel KH7 VALSEBIKE KTM - 450 65:06:22 25:28:06
83 136 IGARIS GINTAUTAS
YAMAHA - WR450F 65:41:11 26:02:55
84 176 RAAF Greg MEMO TOURS - ALFIE COX TEAM KTM - 450 Replica 66:17:20 26:39:04
85 102 ALAN Eduardo ELF ARGENTINA Yamaha - WR 450 66:31:10 26:52:54
86 099 CHERPIN Pierre
KTM - 450 RR 68:13:36 28:35:20
87 150 BELAUSTEGUI Luis FREEDOM RALLY RACING KTM - SX 150 68:15:46 28:37:30
88 120 ILLANES Rodrigo TARAPACA RALLY TEAM Husqvarna - TE 449 70:11:35 30:33:19
89 151 BEALUSTEGUI Juan Manuel AL LIMITE DAKAR 2012 YAMAHA - WR 450 F 70:51:32 31:13:16
90 129 DEPOORTER Philippe WIM MOTORS DAKAR KTM - 450 72:22:40 32:44:24
91 131 THEURIOT Herve REVIVAL AVENTURES YAMAHA - 450 WRF 72:36:22 32:58:06
92 158 VELLUTINO Carlo PERUANOS AL DAKAR KTM - 450 EXC 2011 73:02:56 33:24:40
93 140 REINIKE MARCO MARCO REINIKE KTM - 450 RALLY REPLICA 77:55:04 38:16:48
94 152 TER BEEK RONALD GHR HONDA HONDA - CFR 450 X 77:55:27 38:17:11
95 111 ESPINASSE SYLVAIN SHERCO RALLY RAID - CROCOAVENTURES SHERCO - SR 450 79:12:25 39:34:09
96 125 ASTORI Gianernesto ABC RALLY ACTION TEAM KTM - 450 RR 80:25:19 40:47:03
97 094 WEI Guanghui JINCHENG TEAM JINCHENG - JC 450Y 84:25:58 44:47:42
98 128 ANO Julio TEAM NORMAND RAID YAMAHA - WRF 450 84:30:16 44:52:00
99 187 YOUNGER TOBIAS DESERT ROSE RACING KTM - 450EXC 114:56:08 75:17:52
100 160 HAMEL ERIC
YAMAHA - 450 WRF 139:41:25 100:03:09

Partager cet article

Repost 0
Published by jack sellertaux - dans dakar 2015
commenter cet article

commentaires